| time (UTC) | temp F | wind direction | speed knots | gust knots | rain 1hr in | rain 24hr in | rain mn in | humidity % | barometer mb |
| 20260504221029 | 72 | 220 | 1.7 | 5.2 | 0.00 | 0.00 | 0.00 | 35 | 1007.4 |
| 20260504220530 | 72 | 24 | 1.7 | 7.0 | 0.00 | 0.00 | 0.00 | 34 | 1007.3 |
| 20260504220042 | 72 | 131 | 2.6 | 9.6 | 0.00 | 0.00 | 0.00 | 35 | 1007.4 |
| 20260504215530 | 73 | 172 | 3.5 | 9.6 | 0.00 | 0.00 | 0.00 | 33 | 1007.5 |
| 20260504215032 | 73 | 145 | 1.7 | 5.2 | 0.00 | 0.00 | 0.00 | 34 | 1007.4 |
| 20260504214552 | 72 | 200 | 1.7 | 6.1 | 0.00 | 0.00 | 0.00 | 34 | 1007.3 |
| 20260504214032 | 72 | 294 | 1.7 | 6.1 | 0.00 | 0.00 | 0.00 | 36 | 1007.4 |
| 20260504213529 | 72 | 323 | 2.6 | 6.1 | 0.00 | 0.00 | 0.00 | 36 | 1007.6 |
| 20260504213036 | 71 | 0 | 0.9 | 9.6 | 0.00 | 0.00 | 0.00 | 37 | 1007.5 |
| 20260504212529 | 71 | 291 | 2.6 | 9.6 | 0.00 | 0.00 | 0.00 | 34 | 1007.5 |
| 20260504212032 | 72 | 212 | 1.7 | 9.6 | 0.00 | 0.00 | 0.00 | 37 | 1007.3 |
| 20260504211547 | 72 | 196 | 3.5 | 9.6 | 0.00 | 0.00 | 0.00 | 35 | 1007.6 |
| 20260504211031 | 73 | 210 | 2.6 | 9.6 | 0.00 | 0.00 | 0.00 | 34 | 1007.5 |
| 20260504210530 | 73 | 262 | 2.6 | 9.6 | 0.00 | 0.00 | 0.00 | 34 | 1007.5 |
| 20260504210057 | 73 | 135 | 0.9 | 6.1 | 0.00 | 0.00 | 0.00 | 35 | 1007.5 |
| 20260504205529 | 73 | 214 | 2.6 | 7.8 | 0.00 | 0.00 | 0.00 | 36 | 1007.4 |
| 20260504205029 | 72 | 215 | 1.7 | 7.8 | 0.00 | 0.00 | 0.00 | 39 | 1007.5 |
| 20260504204558 | 72 | 234 | 2.6 | 7.0 | 0.00 | 0.00 | 0.00 | 37 | 1007.5 |
| 20260504204029 | 71 | 131 | 2.6 | 9.6 | 0.00 | 0.00 | 0.00 | 38 | 1007.5 |
| 20260504203529 | 71 | 228 | 4.3 | 9.6 | 0.00 | 0.00 | 0.00 | 36 | 1007.5 |
| 20260504203049 | 72 | 268 | 2.6 | 7.0 | 0.00 | 0.00 | 0.00 | 37 | 1007.4 |
| 20260504202529 | 72 | 188 | 3.5 | 7.0 | 0.00 | 0.00 | 0.00 | 37 | 1007.4 |
| 20260504202028 | 71 | 153 | 3.5 | 7.0 | 0.00 | 0.00 | 0.00 | 37 | 1007.5 |
| 20260504201539 | 71 | 207 | 1.7 | 10.4 | 0.00 | 0.00 | 0.00 | 35 | 1007.5 |
| 20260504201029 | 71 | 239 | 2.6 | 10.4 | 0.00 | 0.00 | 0.00 | 35 | 1007.5 |
| 20260504200529 | 71 | 281 | 1.7 | 7.0 | 0.00 | 0.00 | 0.00 | 37 | 1007.6 |
| 20260504200047 | 72 | 309 | 1.7 | 6.1 | 0.00 | 0.00 | 0.00 | 37 | 1007.6 |
| 20260504195529 | 73 | 280 | 2.6 | 5.2 | 0.00 | 0.00 | 0.00 | 35 | 1007.7 |
| 20260504195029 | 73 | 234 | 1.7 | 7.8 | 0.00 | 0.00 | 0.00 | 34 | 1007.7 |
| 20260504194545 | 73 | 147 | 2.6 | 9.6 | 0.00 | 0.00 | 0.00 | 35 | 1007.6 |
| 20260504194030 | 73 | 222 | 3.5 | 9.6 | 0.00 | 0.00 | 0.00 | 34 | 1007.6 |
| 20260504193530 | 73 | 210 | 1.7 | 7.0 | 0.00 | 0.00 | 0.00 | 35 | 1007.6 |
| 20260504193044 | 73 | 133 | 1.7 | 7.0 | 0.00 | 0.00 | 0.00 | 36 | 1007.6 |
| 20260504192529 | 73 | 20 | 1.7 | 11.3 | 0.00 | 0.00 | 0.00 | 38 | 1007.7 |
| 20260504192029 | 72 | 140 | 2.6 | 11.3 | 0.00 | 0.00 | 0.00 | 34 | 1007.5 |
| 20260504191542 | 72 | 205 | 6.1 | 11.3 | 0.00 | 0.00 | 0.00 | 36 | 1007.6 |
| 20260504191031 | 72 | 156 | 3.5 | 7.0 | 0.00 | 0.00 | 0.00 | 38 | 1007.8 |
| 20260504190530 | 72 | 205 | 1.7 | 4.3 | 0.00 | 0.00 | 0.00 | 37 | 1007.7 |
| 20260504190038 | 71 | 92 | 1.7 | 6.1 | 0.00 | 0.00 | 0.00 | 38 | 1007.9 |
| 20260504185529 | 71 | 219 | 2.6 | 7.0 | 0.00 | 0.00 | 0.00 | 38 | 1007.8 |
| 20260504185032 | 72 | 187 | 2.6 | 7.0 | 0.00 | 0.00 | 0.00 | 34 | 1008.0 |
| 20260504184537 | 71 | 299 | 0.9 | 11.3 | 0.00 | 0.00 | 0.00 | 38 | 1007.9 |
| 20260504184029 | 71 | 332 | 3.5 | 11.3 | 0.00 | 0.00 | 0.00 | 37 | 1008.1 |
| 20260504183530 | 71 | 221 | 3.5 | 11.3 | 0.00 | 0.00 | 0.00 | 38 | 1008.0 |
| 20260504183045 | 71 | 354 | 2.6 | 9.6 | 0.00 | 0.00 | 0.00 | 38 | 1008.1 |
| 20260504182529 | 72 | 145 | 2.6 | 13.0 | 0.00 | 0.00 | 0.00 | 34 | 1008.2 |
| 20260504182029 | 71 | 295 | 2.6 | 13.0 | 0.00 | 0.00 | 0.00 | 36 | 1008.1 |
| 20260504181540 | 72 | 342 | 1.7 | 11.3 | 0.00 | 0.00 | 0.00 | 38 | 1008.2 |
| 20260504181029 | 71 | 227 | 2.6 | 8.7 | 0.00 | 0.00 | 0.00 | 37 | 1008.3 |
| 20260504180530 | 71 | 357 | 2.6 | 14.8 | 0.00 | 0.00 | 0.00 | 39 | 1008.5 |
| 20260504180043 | 70 | 223 | 2.6 | 14.8 | 0.00 | 0.00 | 0.00 | 36 | 1008.4 |
| 20260504175531 | 71 | 312 | 3.5 | 10.4 | 0.00 | 0.00 | 0.00 | 35 | 1008.4 |
| 20260504175030 | 70 | 227 | 3.5 | 10.4 | 0.00 | 0.00 | 0.00 | 35 | 1008.3 |
| 20260504174538 | 70 | 20 | 2.6 | 10.4 | 0.00 | 0.00 | 0.00 | 40 | 1008.5 |
| 20260504174026 | 70 | 125 | 2.6 | 9.6 | 0.00 | 0.00 | 0.00 | 40 | 1008.5 |
| 20260504173529 | 70 | 330 | 3.5 | 8.7 | 0.00 | 0.00 | 0.00 | 34 | 1008.6 |
| 20260504173058 | 71 | 300 | 4.3 | 7.8 | 0.00 | 0.00 | 0.00 | 37 | 1008.6 |
| 20260504172529 | 71 | 292 | 0.9 | 7.0 | 0.00 | 0.00 | 0.00 | 38 | 1008.5 |
| 20260504172029 | 70 | 360 | 0.9 | 14.8 | 0.00 | 0.00 | 0.00 | 37 | 1008.7 |
| 20260504171542 | 69 | 90 | 3.5 | 14.8 | 0.00 | 0.00 | 0.00 | 35 | 1008.6 |
| 20260504171031 | 70 | 281 | 2.6 | 14.8 | 0.00 | 0.00 | 0.00 | 38 | 1008.7 |
| 20260504170526 | 69 | 179 | 3.5 | 9.6 | 0.00 | 0.00 | 0.00 | 38 | 1008.7 |
| 20260504151026 | 64 | 171 | 2.6 | 12.2 | 0.00 | 0.00 | 0.00 | 38 | 1009.9 |
| 20260504150526 | 64 | 289 | 4.3 | 12.2 | 0.00 | 0.00 | 0.00 | 40 | 1010.0 |
| 20260504141029 | 62 | 203 | 1.7 | 5.2 | 0.00 | 0.00 | 0.00 | 43 | 1010.8 |
| 20260504140529 | 62 | 220 | 0.9 | 9.6 | 0.00 | 0.00 | 0.00 | 42 | 1010.8 |
| 20260504130530 | 59 | 107 | 0.9 | 6.1 | 0.00 | 0.00 | 0.00 | 52 | 1010.7 |
| 20260504110529 | 37 | 0 | 0.0 | 0.0 | 0.00 | 0.00 | 0.00 | 88 | 1011.6 |
| 20260504100529 | 35 | 0 | 0.0 | 0.0 | 0.00 | 0.00 | 0.00 | 87 | 1011.4 |
| 20260504090116 | 38 | 0 | 0.0 | 0.0 | 0.00 | 0.00 | 0.00 | 78 | 1011.1 |
| 20260504081556 | 40 | 176 | 0.0 | 0.0 | 0.00 | 0.00 | 0.00 | 70 | 1011.2 |
| 20260504081029 | 41 | 175 | 0.0 | 0.0 | 0.00 | 0.00 | 0.00 | 69 | 1011.3 |
| 20260504080746 | 41 | 0 | 0.0 | 0.0 | 0.00 | 0.00 | 0.00 | 68 | 1011.2 |
| 20260504070124 | 44 | 0 | 0.0 | 1.7 | 0.00 | 0.00 | 0.00 | 63 | 1011.2 |
| 20260504050530 | 41 | 0 | 0.0 | 0.0 | 0.00 | 0.00 | 0.00 | 71 | 1011.5 |
| 20260504045529 | 41 | 0 | 0.0 | 0.0 | 0.00 | 0.00 | 0.00 | 72 | 1011.5 |
| 20260504045029 | 41 | 0 | 0.0 | 0.0 | 0.00 | 0.00 | 0.00 | 73 | 1011.5 |
| 20260504044542 | 41 | 0 | 0.0 | 0.0 | 0.00 | 0.00 | 0.00 | 73 | 1011.5 |
| 20260504044028 | 41 | 0 | 0.0 | 0.0 | 0.00 | 0.00 | 0.00 | 74 | 1011.5 |
| 20260504043529 | 41 | 0 | 0.0 | 0.0 | 0.00 | 0.00 | 0.00 | 73 | 1011.5 |
| 20260504043043 | 41 | 0 | 0.0 | 0.0 | 0.00 | 0.00 | 0.00 | 72 | 1011.6 |
| 20260504042529 | 41 | 0 | 0.0 | 0.0 | 0.00 | 0.00 | 0.00 | 72 | 1011.5 |
| 20260504042030 | 41 | 0 | 0.0 | 0.0 | 0.00 | 0.00 | 0.00 | 73 | 1011.4 |
| 20260504041543 | 41 | 0 | 0.0 | 0.0 | 0.00 | 0.00 | 0.00 | 74 | 1011.4 |
| 20260504041029 | 42 | 0 | 0.0 | 0.0 | 0.00 | 0.00 | 0.00 | 73 | 1011.4 |
| 20260504040530 | 42 | 0 | 0.0 | 0.0 | 0.00 | 0.00 | 0.00 | 70 | 1011.3 |
| 20260504040042 | 42 | 0 | 0.0 | 0.0 | 0.00 | 0.00 | 0.00 | 69 | 1011.3 |
| 20260504035531 | 42 | 0 | 0.0 | 0.0 | 0.00 | 0.00 | 0.00 | 68 | 1011.3 |
| 20260504035029 | 42 | 0 | 0.0 | 0.0 | 0.00 | 0.00 | 0.00 | 68 | 1011.4 |
| 20260504034544 | 42 | 0 | 0.0 | 0.0 | 0.00 | 0.00 | 0.00 | 68 | 1011.4 |
| 20260504034028 | 41 | 0 | 0.0 | 0.0 | 0.00 | 0.00 | 0.00 | 68 | 1011.3 |
| 20260504033528 | 41 | 0 | 0.0 | 0.9 | 0.00 | 0.00 | 0.00 | 69 | 1011.2 |
| 20260504033037 | 41 | 0 | 0.0 | 0.9 | 0.00 | 0.00 | 0.00 | 70 | 1011.2 |
| 20260504032528 | 41 | 0 | 0.0 | 0.9 | 0.00 | 0.00 | 0.00 | 68 | 1011.2 |
| 20260504032030 | 41 | 210 | 0.0 | 0.9 | 0.00 | 0.00 | 0.00 | 68 | 1011.1 |
| 20260504031543 | 41 | 208 | 0.0 | 0.9 | 0.00 | 0.00 | 0.00 | 69 | 1011.1 |
| 20260504031030 | 41 | 208 | 0.0 | 0.9 | 0.00 | 0.00 | 0.00 | 68 | 1011.2 |
| 20260504030530 | 40 | 208 | 0.0 | 0.9 | 0.00 | 0.00 | 0.00 | 67 | 1011.2 |
| 20260504030041 | 41 | 216 | 0.0 | 0.9 | 0.00 | 0.00 | 0.00 | 68 | 1011.2 |
| 20260504025529 | 40 | 214 | 0.0 | 0.9 | 0.00 | 0.00 | 0.00 | 66 | 1011.2 |
| 20260504025029 | 40 | 207 | 0.0 | 0.9 | 0.00 | 0.00 | 0.00 | 66 | 1011.0 |
| 20260504024546 | 41 | 219 | 0.0 | 0.9 | 0.00 | 0.00 | 0.00 | 65 | 1011.2 |
| 20260504024030 | 41 | 219 | 0.0 | 0.9 | 0.00 | 0.00 | 0.00 | 65 | 1011.3 |
| 20260504023531 | 41 | 214 | 0.0 | 1.7 | 0.00 | 0.00 | 0.00 | 66 | 1011.2 |
| 20260504023046 | 41 | 214 | 0.9 | 1.7 | 0.00 | 0.00 | 0.00 | 62 | 1011.2 |
| 20260504022529 | 41 | 214 | 0.0 | 1.7 | 0.00 | 0.00 | 0.00 | 64 | 1011.3 |
| 20260504022030 | 42 | 204 | 0.0 | 1.7 | 0.00 | 0.00 | 0.00 | 63 | 1011.3 |
| 20260504021541 | 42 | 0 | 0.0 | 1.7 | 0.00 | 0.00 | 0.00 | 62 | 1011.1 |
| 20260504021028 | 42 | 213 | 0.9 | 0.9 | 0.00 | 0.00 | 0.00 | 60 | 1011.1 |
| 20260504020528 | 42 | 210 | 0.9 | 0.9 | 0.00 | 0.00 | 0.00 | 59 | 1011.1 |
| 20260504020043 | 42 | 208 | 0.0 | 0.9 | 0.00 | 0.00 | 0.00 | 59 | 1011.1 |
| 20260504015529 | 42 | 205 | 0.0 | 0.9 | 0.00 | 0.00 | 0.00 | 59 | 1010.9 |
| 20260504015030 | 43 | 204 | 0.0 | 1.7 | 0.00 | 0.00 | 0.00 | 58 | 1010.8 |
| 20260504014541 | 43 | 0 | 0.9 | 4.3 | 0.00 | 0.00 | 0.00 | 56 | 1010.8 |
| 20260504014030 | 43 | 255 | 0.9 | 4.3 | 0.00 | 0.00 | 0.00 | 56 | 1010.7 |
| 20260504013529 | 43 | 0 | 0.0 | 0.9 | 0.00 | 0.00 | 0.00 | 57 | 1010.6 |
| 20260504013055 | 43 | 212 | 0.0 | 0.9 | 0.00 | 0.00 | 0.00 | 56 | 1010.5 |
| 20260504012529 | 43 | 0 | 0.0 | 1.7 | 0.00 | 0.00 | 0.00 | 61 | 1010.5 |
| 20260504012029 | 43 | 221 | 0.0 | 1.7 | 0.00 | 0.00 | 0.00 | 58 | 1010.5 |
| 20260504011536 | 43 | 205 | 0.0 | 1.7 | 0.00 | 0.00 | 0.00 | 57 | 1010.4 |
| 20260504011028 | 43 | 205 | 0.0 | 1.7 | 0.00 | 0.00 | 0.00 | 55 | 1010.3 |
| 20260504010528 | 43 | 221 | 0.0 | 0.9 | 0.00 | 0.00 | 0.00 | 54 | 1010.2 |
| 20260504010044 | 44 | 0 | 0.0 | 0.9 | 0.00 | 0.00 | 0.00 | 52 | 1010.2 |
| 20260504005529 | 44 | 202 | 0.0 | 0.9 | 0.00 | 0.00 | 0.00 | 53 | 1010.1 |
| 20260504005029 | 45 | 202 | 0.0 | 0.9 | 0.00 | 0.00 | 0.00 | 51 | 1010.1 |
| 20260504004545 | 45 | 202 | 0.0 | 0.9 | 0.00 | 0.00 | 0.00 | 51 | 1010.0 |
| 20260504004029 | 45 | 201 | 0.0 | 0.9 | 0.00 | 0.00 | 0.00 | 48 | 1009.9 |
| 20260504003530 | 46 | 199 | 0.0 | 0.9 | 0.00 | 0.00 | 0.00 | 49 | 1009.8 |
| 20260504003041 | 47 | 207 | 0.0 | 0.9 | 0.00 | 0.00 | 0.00 | 50 | 1009.7 |
| 20260504002529 | 47 | 0 | 0.0 | 0.9 | 0.00 | 0.00 | 0.00 | 45 | 1009.6 |
| 20260504002029 | 48 | 207 | 0.0 | 0.9 | 0.00 | 0.00 | 0.00 | 46 | 1009.5 |
| 20260504001547 | 49 | 236 | 0.0 | 0.9 | 0.00 | 0.00 | 0.00 | 40 | 1009.5 |
| 20260504001029 | 50 | 0 | 0.0 | 3.5 | 0.00 | 0.00 | 0.00 | 37 | 1009.5 |
| 20260504000530 | 51 | 0 | 0.0 | 3.5 | 0.00 | 0.00 | 0.00 | 37 | 1009.4 |
| 20260504000043 | 51 | 310 | 0.0 | 3.5 | 0.00 | 0.00 | 0.00 | 35 | 1009.4 |
| 20260503235529 | 51 | 314 | 0.9 | 3.5 | 0.00 | 0.00 | 0.00 | 36 | 1009.4 |
| 20260503235029 | 52 | 359 | 0.9 | 7.8 | 0.00 | 0.00 | 0.00 | 35 | 1009.4 |
| 20260503234537 | 52 | 334 | 1.7 | 7.8 | 0.00 | 0.00 | 0.00 | 35 | 1009.2 |
| 20260503234029 | 52 | 0 | 0.9 | 5.2 | 0.00 | 0.00 | 0.00 | 36 | 1009.4 |
| 20260503233528 | 52 | 278 | 1.7 | 7.0 | 0.00 | 0.00 | 0.00 | 34 | 1009.2 |
| 20260503233045 | 52 | 301 | 3.5 | 7.0 | 0.00 | 0.00 | 0.00 | 34 | 1009.1 |
| 20260503232528 | 52 | 328 | 0.9 | 4.3 | 0.00 | 0.00 | 0.00 | 35 | 1009.3 |
| 20260503232029 | 53 | 323 | 1.7 | 7.8 | 0.00 | 0.00 | 0.00 | 35 | 1009.2 |
| 20260503231537 | 53 | 319 | 0.9 | 7.8 | 0.00 | 0.00 | 0.00 | 36 | 1009.2 |
| 20260503231032 | 53 | 349 | 2.6 | 7.8 | 0.00 | 0.00 | 0.00 | 35 | 1009.0 |
| 20260503230530 | 53 | 340 | 3.5 | 7.8 | 0.00 | 0.00 | 0.00 | 39 | 1009.2 |
| 20260503230045 | 53 | 104 | 1.7 | 5.2 | 0.00 | 0.00 | 0.00 | 38 | 1009.1 |
| 20260503225529 | 53 | 252 | 1.7 | 10.4 | 0.00 | 0.00 | 0.00 | 36 | 1009.0 |
| 20260503225031 | 54 | 274 | 2.6 | 10.4 | 0.00 | 0.00 | 0.00 | 36 | 1009.1 |
| 20260503224541 | 54 | 335 | 2.6 | 7.8 | 0.00 | 0.00 | 0.00 | 35 | 1009.1 |
| 20260503224028 | 54 | 287 | 2.6 | 7.0 | 0.00 | 0.00 | 0.00 | 37 | 1009.0 |
| 20260503223529 | 55 | 328 | 1.7 | 7.8 | 0.00 | 0.00 | 0.00 | 38 | 1009.0 |
| 20260503223042 | 54 | 333 | 2.6 | 7.8 | 0.00 | 0.00 | 0.00 | 39 | 1009.2 |
| 20260503222528 | 55 | 349 | 1.7 | 6.1 | 0.00 | 0.00 | 0.00 | 38 | 1009.2 |
| 20260503222030 | 55 | 322 | 1.7 | 7.8 | 0.00 | 0.00 | 0.00 | 37 | 1009.1 |
| 20260503221536 | 55 | 61 | 1.7 | 9.6 | 0.00 | 0.00 | 0.00 | 38 | 1009.1 |